This is the latest recevied weather packets stored in our database for station/object KC3ULW-13. If no packets are shown the sender has not sent any weather packets the latest 10 day(s).
| Time | Temp. | Humidity | Pressure | Rain* | Wind** | Luminosity | Snow |
|---|---|---|---|---|---|---|---|
| 1777587090 | 9.44° C | 71% | 1016.6 hPa | 1.27 mm | - | 36 W/m² | - |
| 1777586786 | 9.44° C | 71% | 1016.6 hPa | 1.27 mm | - | 42 W/m² | - |
| 1777586482 | 10.56° C | 65% | 1016.5 hPa | 0 mm | - | 22 W/m² | - |
| 1777586177 | 10.56° C | 60% | 1016.3 hPa | 0 mm | - | 24 W/m² | - |
| 1777585875 | 10.56° C | 61% | 1016.4 hPa | 0 mm | - | 28 W/m² | - |
| 1777585570 | 10.56° C | 61% | 1016.3 hPa | 0 mm | - | 35 W/m² | - |
| 1777585266 | 10.56° C | 60% | 1016.3 hPa | 0 mm | - | 46 W/m² | - |
| 1777584961 | 10.56° C | 60% | 1016.1 hPa | 0 mm | - | 29 W/m² | - |
| 1777584658 | 10.56° C | 60% | 1016 hPa | 0 mm | - | 32 W/m² | - |
| 1777584355 | 11.11° C | 60% | 1016 hPa | 0 mm | - | 55 W/m² | - |
| 1777584052 | 11.11° C | 60% | 1016.1 hPa | 0 mm | - | 85 W/m² | - |
| 1777583752 | 11.67° C | 60% | 1015.9 hPa | 0 mm | - | 115 W/m² | - |
| 1777583450 | 11.67° C | 59% | 1015.9 hPa | 0 mm | - | 173 W/m² | - |
| 1777583145 | 11.11° C | 61% | 1016 hPa | 0 mm | - | 360 W/m² | - |
| 1777582841 | 11.67° C | 62% | 1016 hPa | 0 mm | - | 396 W/m² | - |
| 1777582538 | 11.11° C | 62% | 1016 hPa | 0 mm | - | 240 W/m² | - |
| 1777582232 | 10.56° C | 64% | 1016 hPa | 0 mm | - | 247 W/m² | - |
| 1777581931 | 10.56° C | 66% | 1016.1 hPa | 0 mm | - | 199 W/m² | - |
| 1777581626 | 10.56° C | 67% | 1016.2 hPa | 0 mm | - | 188 W/m² | - |
| 1777581320 | 10° C | 67% | 1016.2 hPa | 0 mm | - | 228 W/m² | - |
| 1777581016 | 10° C | 65% | 1016 hPa | 0 mm | - | 108 W/m² | - |
| 1777580715 | 10° C | 64% | 1016.1 hPa | 0 mm | - | 111 W/m² | - |
| 1777580411 | 10° C | 65% | 1016.2 hPa | 0 mm | - | 145 W/m² | - |
| 1777580107 | 10° C | 65% | 1016.2 hPa | 0 mm | - | 203 W/m² | - |
| 1777579799 | 10.56° C | 66% | 1016.1 hPa | 0 mm | - | 290 W/m² | - |
* Rain latest hour (hover to see other rain measurements)
** Current wind speed in m/s (hover to see current wind gust speed)